Regional Weather Roundup
Issued by NWS

Home | Current Version | Previous Version | Graphics & Text | Print | Product List | Glossary On
Versions: 1 2 3 4 5 6 7 8 9 10 11 12 13 14 15 16 17 18 19 20 21 22 23 24 25 26 27 28 29 30 31 32 33 34 35 36 37 38 39 40 41 42 43 44 45 46 47 48 49 50
000
ASUS43 KLSX 161207
RWRMO

WEATHER SUMMARY FOR MISSOURI
NATIONAL WEATHER SERVICE SPRINGFIELD MO
700 AM CDT MON OCT 16 2017

NOTE: "FAIR" INDICATES FEW OR NO CLOUDS BELOW 12,000 FEET WITH NO
       SIGNIFICANT WEATHER AND/OR OBSTRUCTIONS TO VISIBILITY.
       CURRENT SKY AND/OR WEATHER CONDITIONS ARE NOT AVAILABLE FOR
       CHILLICOTHE AND FARMINGTON.

MOZ001>031-035>038-043-044-053-054-161300-
...NORTHERN AND WESTERN MISSOURI...

CITY           SKY/WX    TMP DP  RH WIND       PRES   REMARKS
KANSAS CTY INT CLEAR     37  36  96 SW3       30.39R
6HR MIN TEMP:  37; 6HR MAX TEMP:  48;

KANSAS C DTWN  PTCLDY    44  41  89 CALM      30.39S
6HR MIN TEMP:  42; 6HR MAX TEMP:  47;

LEE`S SUMMIT   PTCLDY    43  38  82 SW7       30.39S
6HR MIN TEMP:  43; 6HR MAX TEMP:  46;

ST JOSEPH      FOG       35  35 100 CALM      30.39R VSB 1/4
6HR MIN TEMP:  33; 6HR MAX TEMP:  40;

CHILLICOTHE      N/A     36  35  96 CALM      30.38R
6HR MIN TEMP:  36; 6HR MAX TEMP:  40;

KIRKSVILLE     CLEAR     41  38  89 SW6       30.36R
6HR MIN TEMP:  38; 6HR MAX TEMP:  43;


$$
MOZ066>068-077>081-088>096-101>105-161300-
...SOUTHWEST MISSOURI...

CITY           SKY/WX    TMP DP  RH WIND       PRES   REMARKS
SPRINGFIELD    CLEAR     38  37  97 CALM      30.40R
6HR MIN TEMP:  38; 6HR MAX TEMP:  44;

JOPLIN         CLEAR     38  38 100 CALM      30.42R
6HR MIN TEMP:  38; 6HR MAX TEMP:  44;

BRANSON        CLEAR     39  39 100 CALM      30.41S

$$
MOZ032>034-039>042-045>050-055>058-069>072-161300-
...CENTRAL MISSOURI...

CITY           SKY/WX    TMP DP  RH WIND       PRES   REMARKS
COLUMBIA       CLEAR     43  38  82 W6        30.39R
6HR MIN TEMP:  42; 6HR MAX TEMP:  47;

JEFFERSON CITY FOG       40  39  97 CALM      30.40R VSB 1/4
6HR MIN TEMP:  40; 6HR MAX TEMP:  45;

ROLLA          CLEAR     39  39 100 CALM      30.39S
6HR MIN TEMP:  38; 6HR MAX TEMP:  45;

SEDALIA        CLEAR     42  40  92 SW6       30.40S
6HR MIN TEMP:  42; 6HR MAX TEMP:  49;

WHITEMAN AFB   CLEAR     39  36  88 SW5       30.35S
WARRENSBURG    CLEAR     37  36  93 CALM      30.40R
OSAGE BEACH    CLEAR     37  36  96 CALM      30.41R

$$
MOZ051-052-059>065-161300-
...EAST CENTRAL MISSOURI...

CITY           SKY/WX    TMP DP  RH WIND       PRES   REMARKS
ST LOUIS INTL  CLEAR     43  43 100 W3        30.39R
6HR MIN TEMP:  43; 6HR MAX TEMP:  48;

SPIRIT OF STL  FOG       41  41 100 SW3       30.38R VSB 1/4
6HR MIN TEMP:  40; 6HR MAX TEMP:  44;

ST CHARLES     FOG       39  39 100 SW3       30.38R VSB 1/4
6HR MIN TEMP:  38; 6HR MAX TEMP:  48;


$$
MOZ072>076-082>087-097>100-106>115-161300-
...SOUTH CENTRAL AND SOUTHEAST MISSOURI...

CITY           SKY/WX    TMP DP  RH WIND       PRES   REMARKS
CAPE GIRARDEAU CLEAR     37  36  96 W3        30.37R
6HR MIN TEMP:  37; 6HR MAX TEMP:  48;

FARMINGTON     CLEAR     38  37  97 CALM      30.39R
6HR MIN TEMP:  38; 6HR MAX TEMP:  46;

POPLAR BLUFF   CLEAR     43  41  93 NW6       30.37R
6HR MIN TEMP:  43; 6HR MAX TEMP:  48;

WEST PLAINS    CLEAR     43  38  82 CALM      30.39R
6HR MIN TEMP:  43; 6HR MAX TEMP:  46;


$$



USA.gov is the U.S. government's official web portal to all federal, state and local government web resources and services.